Time,TemperatureF,DewpointF,PressureIn,WindDirection,WindDirectionDegrees,WindSpeedMPH,WindSpeedGustMPH,Humidity,HourlyPrecipIn,Conditions,Clouds,dailyrainin,SolarRadiationWatts/m^2,SoftwareType,DateUTC
2013-03-06 00:11:00,49.0,49.0,-100.00,West,274,6.0,9.0,100,0.00,,,0.00,0.000000,,2013-03-06 08:11:00,
2013-03-06 00:21:00,49.0,49.0,-100.00,West,274,6.0,9.0,100,0.00,,,0.00,0.000000,,2013-03-06 08:21:00,
2013-03-06 00:31:00,49.0,49.0,-100.00,West,274,6.0,9.0,100,0.00,,,0.00,0.000000,,2013-03-06 08:31:00,
2013-03-06 00:42:00,49.0,49.0,-100.00,West,274,6.0,9.0,100,0.00,,,0.00,0.000000,,2013-03-06 08:42:00,
2013-03-06 00:51:00,49.0,49.0,-100.00,WNW,287,6.0,8.0,100,0.00,,,0.00,0.000000,,2013-03-06 08:51:00,
2013-03-06 01:21:00,49.0,49.0,-100.00,WNW,287,6.0,8.0,100,0.00,,,0.00,0.000000,,2013-03-06 09:21:00,
2013-03-06 01:31:00,49.0,49.0,-100.00,WNW,287,6.0,8.0,100,0.00,,,0.00,0.000000,,2013-03-06 09:31:00,
2013-03-06 01:41:00,49.0,49.0,-100.00,WNW,287,6.0,8.0,100,0.00,,,0.00,0.000000,,2013-03-06 09:41:00,
2013-03-06 01:51:00,49.0,49.0,-100.00,WNW,299,3.0,10.0,99,0.00,,,0.00,0.000000,,2013-03-06 09:51:00,
2013-03-06 02:11:00,49.0,49.0,-100.00,WNW,299,3.0,10.0,99,0.00,,,0.00,0.000000,,2013-03-06 10:11:00,
2013-03-06 02:21:00,49.0,49.0,-100.00,WNW,299,3.0,10.0,99,0.00,,,0.00,0.000000,,2013-03-06 10:21:00,
2013-03-06 02:31:00,49.0,49.0,-100.00,WNW,299,3.0,10.0,99,0.00,,,0.00,0.000000,,2013-03-06 10:31:00,
2013-03-06 02:41:00,49.0,49.0,-100.00,WNW,299,3.0,10.0,99,0.00,,,0.00,0.000000,,2013-03-06 10:41:00,
2013-03-06 02:51:00,48.0,47.0,-100.00,WSW,258,5.0,7.0,96,0.00,,,0.00,0.000000,,2013-03-06 10:51:00,
2013-03-06 03:11:00,48.0,47.0,-100.00,WSW,258,5.0,7.0,96,0.00,,,0.00,0.000000,,2013-03-06 11:11:00,
2013-03-06 03:22:00,48.0,47.0,-100.00,WSW,258,5.0,7.0,96,0.00,,,0.00,0.000000,,2013-03-06 11:22:00,
2013-03-06 03:32:00,48.0,47.0,-100.00,WSW,258,5.0,7.0,96,0.00,,,0.00,0.000000,,2013-03-06 11:32:00,
2013-03-06 03:42:00,48.0,47.0,-100.00,WSW,258,5.0,7.0,96,0.00,,,0.00,0.000000,,2013-03-06 11:42:00,
2013-03-06 03:51:00,48.0,45.0,-100.00,WNW,287,4.0,6.0,88,0.00,,,0.00,0.000000,,2013-03-06 11:51:00,
2013-03-06 04:11:00,48.0,45.0,-100.00,WNW,287,4.0,6.0,88,0.00,,,0.00,0.000000,,2013-03-06 12:11:00,
2013-03-06 04:21:00,48.0,45.0,-100.00,WNW,287,4.0,6.0,88,0.00,,,0.00,0.000000,,2013-03-06 12:21:00,
2013-03-06 04:32:00,48.0,45.0,-100.00,WNW,287,4.0,6.0,88,0.00,,,0.00,0.000000,,2013-03-06 12:32:00,
2013-03-06 04:42:00,48.0,45.0,-100.00,WNW,287,4.0,6.0,88,0.00,,,0.00,0.000000,,2013-03-06 12:42:00,
2013-03-06 04:51:00,48.0,44.0,-100.00,WNW,284,4.0,6.0,87,0.00,,,0.00,0.000000,,2013-03-06 12:51:00,
2013-03-06 05:11:00,48.0,44.0,-100.00,WNW,284,4.0,6.0,87,0.00,,,0.00,0.000000,,2013-03-06 13:11:00,
2013-03-06 05:21:00,48.0,44.0,-100.00,WNW,284,4.0,6.0,87,0.00,,,0.00,0.000000,,2013-03-06 13:21:00,
2013-03-06 05:32:00,48.0,44.0,-100.00,WNW,284,4.0,6.0,87,0.00,,,0.00,0.000000,,2013-03-06 13:32:00,
2013-03-06 05:42:00,48.0,44.0,-100.00,WNW,284,4.0,6.0,87,0.00,,,0.00,0.000000,,2013-03-06 13:42:00,
2013-03-06 05:51:00,48.0,43.0,-100.00,NNE,26,1.0,6.0,83,0.00,,,-99.99,0.000000,,2013-03-06 13:51:00,
2013-03-06 06:21:00,48.0,43.0,-100.00,NNE,26,1.0,6.0,83,0.00,,,-99.99,0.000000,,2013-03-06 14:21:00,
2013-03-06 06:32:00,48.0,43.0,-100.00,NNE,26,1.0,6.0,83,0.00,,,-99.99,0.000000,,2013-03-06 14:32:00,
2013-03-06 06:41:00,48.0,43.0,-100.00,NNE,26,1.0,6.0,83,0.00,,,-99.99,0.000000,,2013-03-06 14:41:00,
2013-03-06 06:51:00,49.0,46.0,-100.00,SE,125,3.0,4.0,90,0.00,,,0.00,14.000000,,2013-03-06 14:51:00,
2013-03-06 07:21:00,49.0,46.0,-100.00,SE,125,3.0,4.0,90,0.00,,,0.00,14.000000,,2013-03-06 15:21:00,
2013-03-06 07:32:00,49.0,46.0,-100.00,SE,125,3.0,4.0,90,0.00,,,0.00,14.000000,,2013-03-06 15:32:00,
2013-03-06 07:42:00,49.0,46.0,-100.00,SE,125,3.0,4.0,90,0.00,,,0.00,14.000000,,2013-03-06 15:42:00,
2013-03-06 07:51:00,53.0,45.0,-100.00,East,80,7.0,9.0,75,0.00,,,0.00,145.000000,,2013-03-06 15:51:00,
2013-03-06 08:21:00,53.0,45.0,-100.00,East,80,7.0,9.0,75,0.00,,,0.00,145.000000,,2013-03-06 16:21:00,
2013-03-06 08:32:00,53.0,45.0,-100.00,East,80,7.0,9.0,75,0.00,,,0.00,145.000000,,2013-03-06 16:32:00,
2013-03-06 08:41:00,53.0,45.0,-100.00,East,80,7.0,9.0,75,0.00,,,0.00,145.000000,,2013-03-06 16:41:00,
2013-03-06 08:51:00,52.0,44.0,-100.00,West,275,5.0,9.0,73,0.00,,,0.00,339.000000,,2013-03-06 16:51:00,
2013-03-06 09:11:00,52.0,44.0,-100.00,West,275,5.0,9.0,73,0.00,,,0.00,339.000000,,2013-03-06 17:11:00,
2013-03-06 09:21:00,52.0,44.0,-100.00,West,275,5.0,9.0,73,0.00,,,0.00,339.000000,,2013-03-06 17:21:00,
2013-03-06 09:32:00,52.0,44.0,-100.00,West,275,5.0,9.0,73,0.00,,,0.00,339.000000,,2013-03-06 17:32:00,
2013-03-06 09:41:00,52.0,44.0,-100.00,West,275,5.0,9.0,73,0.00,,,0.00,339.000000,,2013-03-06 17:41:00,
2013-03-06 09:51:00,58.0,43.0,-100.00,West,260,6.0,10.0,57,0.00,,,0.00,385.000000,,2013-03-06 17:51:00,
2013-03-06 10:28:00,58.0,43.0,-100.00,West,260,6.0,10.0,57,0.00,,,0.00,385.000000,,2013-03-06 18:28:00,
2013-03-06 10:42:00,58.0,43.0,-100.00,West,260,6.0,10.0,57,0.00,,,0.00,385.000000,,2013-03-06 18:42:00,
2013-03-06 10:51:00,58.0,43.0,-100.00,West,278,6.0,10.0,57,0.00,,,0.00,341.000000,,2013-03-06 18:51:00,
2013-03-06 11:21:00,58.0,43.0,-100.00,West,278,6.0,10.0,57,0.00,,,0.00,341.000000,,2013-03-06 19:21:00,
2013-03-06 11:32:00,58.0,43.0,-100.00,West,278,6.0,10.0,57,0.00,,,0.00,341.000000,,2013-03-06 19:32:00,
2013-03-06 11:42:00,58.0,43.0,-100.00,West,278,6.0,10.0,57,0.00,,,0.00,341.000000,,2013-03-06 19:42:00,
2013-03-06 11:51:00,61.0,43.0,-100.00,West,264,9.0,15.0,51,0.00,,,-99.99,666.000000,,2013-03-06 19:51:00,
2013-03-06 12:22:00,61.0,43.0,-100.00,West,264,9.0,15.0,51,0.00,,,-99.99,666.000000,,2013-03-06 20:22:00,
2013-03-06 12:32:00,61.0,43.0,-100.00,West,264,9.0,15.0,51,0.00,,,-99.99,666.000000,,2013-03-06 20:32:00,
2013-03-06 12:42:00,61.0,43.0,-100.00,West,264,9.0,15.0,51,0.00,,,-99.99,666.000000,,2013-03-06 20:42:00,
2013-03-06 12:51:00,62.0,42.0,-100.00,WSW,242,9.0,19.0,48,0.00,,,0.00,808.000000,,2013-03-06 20:51:00,
2013-03-06 13:22:00,62.0,42.0,-100.00,WSW,242,9.0,19.0,48,0.00,,,0.00,808.000000,,2013-03-06 21:22:00,
2013-03-06 13:32:00,62.0,42.0,-100.00,WSW,242,9.0,19.0,48,0.00,,,0.00,808.000000,,2013-03-06 21:32:00,
2013-03-06 13:42:00,62.0,42.0,-100.00,WSW,242,9.0,19.0,48,0.00,,,0.00,808.000000,,2013-03-06 21:42:00,
2013-03-06 13:51:00,63.0,43.0,-100.00,WSW,248,10.0,17.0,48,0.00,,,0.00,750.000000,,2013-03-06 21:51:00,
2013-03-06 14:21:00,63.0,43.0,-100.00,WSW,248,10.0,17.0,48,0.00,,,0.00,750.000000,,2013-03-06 22:21:00,
2013-03-06 14:32:00,63.0,43.0,-100.00,WSW,248,10.0,17.0,48,0.00,,,0.00,750.000000,,2013-03-06 22:32:00,
2013-03-06 14:41:00,63.0,43.0,-100.00,WSW,248,10.0,17.0,48,0.00,,,0.00,750.000000,,2013-03-06 22:41:00,
2013-03-06 14:51:00,62.0,43.0,-100.00,WSW,251,12.0,18.0,49,0.00,,,0.00,646.000000,,2013-03-06 22:51:00,
2013-03-06 15:21:00,62.0,43.0,-100.00,WSW,251,12.0,18.0,49,0.00,,,0.00,646.000000,,2013-03-06 23:21:00,
2013-03-06 15:31:00,62.0,43.0,-100.00,WSW,251,12.0,18.0,49,0.00,,,0.00,646.000000,,2013-03-06 23:31:00,
2013-03-06 15:41:00,62.0,43.0,-100.00,WSW,251,12.0,18.0,49,0.00,,,0.00,646.000000,,2013-03-06 23:41:00,
2013-03-06 15:51:00,61.0,43.0,-100.00,West,264,12.0,21.0,52,0.00,,,0.00,476.000000,,2013-03-06 23:51:00,
2013-03-06 16:21:00,61.0,43.0,-100.00,West,264,12.0,21.0,52,0.00,,,0.00,476.000000,,2013-03-07 00:21:00,
2013-03-06 16:32:00,61.0,43.0,-100.00,West,264,12.0,21.0,52,0.00,,,0.00,476.000000,,2013-03-07 00:32:00,
2013-03-06 16:41:00,61.0,43.0,-100.00,West,264,12.0,21.0,52,0.00,,,0.00,476.000000,,2013-03-07 00:41:00,
2013-03-06 16:51:00,58.0,43.0,-100.00,West,262,10.0,17.0,57,0.00,,,0.00,282.000000,,2013-03-07 00:51:00,
2013-03-06 17:11:00,58.0,43.0,-100.00,West,262,10.0,17.0,57,0.00,,,0.00,282.000000,,2013-03-07 01:11:00,
2013-03-06 17:21:00,58.0,43.0,-100.00,West,262,10.0,17.0,57,0.00,,,0.00,282.000000,,2013-03-07 01:21:00,
2013-03-06 17:31:00,58.0,43.0,-100.00,West,262,10.0,17.0,57,0.00,,,0.00,282.000000,,2013-03-07 01:31:00,
2013-03-06 17:41:00,58.0,43.0,-100.00,West,262,10.0,17.0,57,0.00,,,0.00,282.000000,,2013-03-07 01:41:00,
2013-03-06 17:51:00,53.0,42.0,-100.00,West,279,7.0,13.0,66,0.00,,,0.00,32.000000,,2013-03-07 01:51:00,
2013-03-06 18:11:00,53.0,42.0,-100.00,West,279,7.0,13.0,66,0.00,,,0.00,32.000000,,2013-03-07 02:11:00,
2013-03-06 18:21:00,53.0,42.0,-100.00,West,279,7.0,13.0,66,0.00,,,0.00,32.000000,,2013-03-07 02:21:00,
2013-03-06 18:31:00,53.0,42.0,-100.00,West,279,7.0,13.0,66,0.00,,,0.00,32.000000,,2013-03-07 02:31:00,
2013-03-06 18:41:00,53.0,42.0,-100.00,West,279,7.0,13.0,66,0.00,,,0.00,32.000000,,2013-03-07 02:41:00,
2013-03-06 18:51:00,52.0,43.0,-100.00,WNW,292,5.0,8.0,71,0.00,,,0.00,0.000000,,2013-03-07 02:51:00,
2013-03-06 19:11:00,52.0,43.0,-100.00,WNW,292,5.0,8.0,71,0.00,,,0.00,0.000000,,2013-03-07 03:11:00,
2013-03-06 19:21:00,52.0,43.0,-100.00,WNW,292,5.0,8.0,71,0.00,,,0.00,0.000000,,2013-03-07 03:21:00,
2013-03-06 19:31:00,52.0,43.0,-100.00,WNW,292,5.0,8.0,71,0.00,,,0.00,0.000000,,2013-03-07 03:31:00,
2013-03-06 19:41:00,52.0,43.0,-100.00,WNW,292,5.0,8.0,71,0.00,,,0.00,0.000000,,2013-03-07 03:41:00,
2013-03-06 19:51:00,51.0,43.0,-100.00,NNW,328,3.0,6.0,73,0.00,,,0.00,0.000000,,2013-03-07 03:51:00,
2013-03-06 20:11:00,51.0,43.0,-100.00,NNW,328,3.0,6.0,73,0.00,,,0.00,0.000000,,2013-03-07 04:11:00,
2013-03-06 20:21:00,51.0,43.0,-100.00,NNW,328,3.0,6.0,73,0.00,,,0.00,0.000000,,2013-03-07 04:21:00,
2013-03-06 20:31:00,51.0,43.0,-100.00,NNW,328,3.0,6.0,73,0.00,,,0.00,0.000000,,2013-03-07 04:31:00,
2013-03-06 20:41:00,51.0,43.0,-100.00,NNW,328,3.0,6.0,73,0.00,,,0.00,0.000000,,2013-03-07 04:41:00,
2013-03-06 20:51:00,50.0,43.0,-100.00,East,93,2.0,5.0,76,0.00,,,0.00,0.000000,,2013-03-07 04:51:00,
2013-03-06 21:12:00,50.0,43.0,-100.00,East,93,2.0,5.0,76,0.00,,,0.00,0.000000,,2013-03-07 05:12:00,
2013-03-06 21:22:00,50.0,43.0,-100.00,East,93,2.0,5.0,76,0.00,,,0.00,0.000000,,2013-03-07 05:22:00,
2013-03-06 21:32:00,50.0,43.0,-100.00,East,93,2.0,5.0,76,0.00,,,0.00,0.000000,,2013-03-07 05:32:00,
2013-03-06 21:41:00,50.0,43.0,-100.00,East,93,2.0,5.0,76,0.00,,,0.00,0.000000,,2013-03-07 05:41:00,
2013-03-06 21:51:00,50.0,43.0,-100.00,East,86,3.0,4.0,77,0.00,,,0.00,0.000000,,2013-03-07 05:51:00,
2013-03-06 22:11:00,50.0,43.0,-100.00,East,86,3.0,4.0,77,0.00,,,0.00,0.000000,,2013-03-07 06:11:00,
2013-03-06 22:21:00,50.0,43.0,-100.00,East,86,3.0,4.0,77,0.00,,,0.00,0.000000,,2013-03-07 06:21:00,
2013-03-06 22:31:00,50.0,43.0,-100.00,East,86,3.0,4.0,77,0.00,,,0.00,0.000000,,2013-03-07 06:31:00,
2013-03-06 22:41:00,50.0,43.0,-100.00,East,86,3.0,4.0,77,0.00,,,0.00,0.000000,,2013-03-07 06:41:00,
2013-03-06 22:51:00,51.0,43.0,-100.00,NNW,329,2.0,6.0,75,0.00,,,0.00,0.000000,,2013-03-07 06:51:00,
2013-03-06 23:21:00,51.0,43.0,-100.00,NNW,329,2.0,6.0,75,0.00,,,0.00,0.000000,,2013-03-07 07:21:00,
2013-03-06 23:31:00,51.0,43.0,-100.00,NNW,329,2.0,6.0,75,0.00,,,0.00,0.000000,,2013-03-07 07:31:00,
2013-03-06 23:42:00,51.0,43.0,-100.00,NNW,329,2.0,6.0,75,0.00,,,0.00,0.000000,,2013-03-07 07:42:00,
2013-03-06 23:51:00,49.0,44.0,-100.00,East,89,3.0,4.0,83,0.00,,,0.00,0.000000,,2013-03-07 07:51:00,